Year,Month,Day,Hour,Minute,Value (Times are PST for temperature in C)
2014,07,13,02,04,10.80
2014,07,13,02,05,10.80
2014,07,13,02,06,10.80
2014,07,13,02,07,10.80
2014,07,13,02,08,10.80
2014,07,13,02,09,10.80
2014,07,13,02,10,10.80
2014,07,13,02,11,10.80
2014,07,13,02,12,10.80
2014,07,13,02,13,10.80
2014,07,13,02,14,10.80
2014,07,13,02,15,10.80
2014,07,13,02,16,10.80
2014,07,13,02,17,10.80
2014,07,13,02,18,10.80
2014,07,13,02,19,10.80
2014,07,13,02,20,10.80
2014,07,13,02,21,10.80
2014,07,13,02,22,10.80
2014,07,13,02,23,10.80
2014,07,13,02,24,10.80
2014,07,13,02,25,10.80
2014,07,13,02,26,10.80
2014,07,13,02,27,10.80
2014,07,13,02,28,10.80
2014,07,13,02,29,10.80
2014,07,13,02,30,10.80
2014,07,13,02,31,10.80
2014,07,13,02,32,10.80
2014,07,13,02,33,10.80
2014,07,13,02,34,10.80
2014,07,13,02,35,10.80
2014,07,13,02,36,10.80
2014,07,13,02,37,10.80
2014,07,13,02,38,10.80
2014,07,13,02,39,10.80
2014,07,13,02,40,10.80
2014,07,13,02,41,10.80
2014,07,13,02,42,10.80
2014,07,13,02,43,10.80
2014,07,13,02,44,10.80
2014,07,13,02,45,10.80
2014,07,13,02,46,10.80
2014,07,13,02,47,10.80
2014,07,13,02,48,10.80
2014,07,13,02,49,10.80
2014,07,13,02,50,10.80
2014,07,13,02,51,10.80
2014,07,13,02,52,10.80
2014,07,13,02,53,10.80
2014,07,13,02,54,10.80
2014,07,13,02,55,10.80
2014,07,13,02,56,10.80
2014,07,13,02,57,10.80
2014,07,13,02,58,10.80
2014,07,13,02,59,10.80
2014,07,13,03,04,10.70
2014,07,13,03,05,10.70
2014,07,13,03,06,10.70
2014,07,13,03,07,10.70
2014,07,13,03,08,10.70
2014,07,13,03,09,10.70
2014,07,13,03,10,10.70
2014,07,13,03,11,10.70
2014,07,13,03,12,10.70
2014,07,13,03,13,10.70
2014,07,13,03,14,10.70
2014,07,13,03,15,10.70
2014,07,13,03,16,10.70
2014,07,13,03,17,10.70
2014,07,13,03,18,10.70
2014,07,13,03,19,10.70
2014,07,13,03,20,10.70
2014,07,13,03,21,10.70
2014,07,13,03,22,10.70
2014,07,13,03,23,10.70
2014,07,13,03,24,10.70
2014,07,13,03,25,10.70
2014,07,13,03,26,10.70
2014,07,13,03,27,10.70
2014,07,13,03,28,10.70
2014,07,13,03,29,10.70
2014,07,13,03,30,10.70
2014,07,13,03,31,10.70
2014,07,13,03,32,10.70
2014,07,13,03,33,10.70
2014,07,13,03,34,10.70
2014,07,13,03,35,10.70
2014,07,13,03,36,10.70
2014,07,13,03,37,10.70
2014,07,13,03,38,10.70
2014,07,13,03,39,10.70
2014,07,13,03,40,10.70
2014,07,13,03,41,10.70
2014,07,13,03,42,10.70
2014,07,13,03,43,10.70
2014,07,13,03,44,10.70
2014,07,13,03,45,10.70
2014,07,13,03,46,10.70
2014,07,13,03,47,10.70
2014,07,13,03,48,10.70
2014,07,13,03,49,10.70
2014,07,13,03,50,10.70
2014,07,13,03,51,10.70
2014,07,13,03,52,10.70
2014,07,13,03,53,10.70
2014,07,13,03,54,10.70
2014,07,13,03,55,10.70
2014,07,13,03,56,10.70
2014,07,13,03,57,10.70
2014,07,13,03,58,10.70
2014,07,13,03,59,10.70
2014,07,13,04,04,10.40
2014,07,13,04,05,10.40
2014,07,13,04,06,10.40
2014,07,13,04,07,10.40
2014,07,13,04,08,10.40
2014,07,13,04,09,10.40
2014,07,13,04,10,10.40
2014,07,13,04,11,10.40
2014,07,13,04,12,10.40
2014,07,13,04,13,10.40
2014,07,13,04,14,10.40
2014,07,13,04,15,10.40
2014,07,13,04,16,10.40
2014,07,13,04,17,10.40
2014,07,13,04,18,10.40
2014,07,13,04,19,10.40
2014,07,13,04,20,10.40
2014,07,13,04,21,10.40
2014,07,13,04,22,10.40
2014,07,13,04,23,10.40
2014,07,13,04,24,10.40
2014,07,13,04,25,10.40
2014,07,13,04,26,10.40
2014,07,13,04,27,10.40
2014,07,13,04,28,10.40
2014,07,13,04,29,10.40
2014,07,13,04,30,10.40
2014,07,13,04,31,10.40
2014,07,13,04,32,10.40
2014,07,13,04,33,10.40
2014,07,13,04,34,10.40
2014,07,13,04,35,10.40
2014,07,13,04,36,10.40
2014,07,13,04,37,10.40
2014,07,13,04,38,10.40
2014,07,13,04,39,10.40
2014,07,13,04,40,10.40
2014,07,13,04,41,10.40
2014,07,13,04,42,10.40
2014,07,13,04,43,10.40
2014,07,13,04,44,10.40
2014,07,13,04,45,10.40
2014,07,13,04,46,10.40
2014,07,13,04,47,10.40
2014,07,13,04,48,10.40
2014,07,13,04,49,10.40
2014,07,13,04,50,10.40
2014,07,13,04,51,10.40
2014,07,13,04,52,10.40
2014,07,13,04,53,10.40
2014,07,13,04,54,10.40
2014,07,13,04,55,10.40
2014,07,13,04,56,10.40
2014,07,13,04,57,10.40
2014,07,13,04,58,10.40
2014,07,13,04,59,10.40
2014,07,13,05,05,10.20
2014,07,13,05,06,10.20
2014,07,13,05,07,10.20
2014,07,13,05,08,10.20
2014,07,13,05,09,10.20
2014,07,13,05,10,10.20
2014,07,13,05,11,10.20
2014,07,13,05,12,10.20
2014,07,13,05,13,10.20
2014,07,13,05,14,10.20
2014,07,13,05,15,10.20
2014,07,13,05,16,10.20
2014,07,13,05,17,10.20
2014,07,13,05,18,10.20
2014,07,13,05,19,10.20
2014,07,13,05,20,10.20
2014,07,13,05,21,10.20
2014,07,13,05,22,10.20
2014,07,13,05,23,10.20
2014,07,13,05,24,10.20
2014,07,13,05,25,10.20
2014,07,13,05,26,10.20
2014,07,13,05,27,10.20
2014,07,13,05,28,10.20
2014,07,13,05,29,10.20
2014,07,13,05,30,10.20
2014,07,13,05,31,10.20
2014,07,13,05,32,10.20
2014,07,13,05,33,10.20
2014,07,13,05,34,10.20
2014,07,13,05,35,10.20
2014,07,13,05,36,10.20
2014,07,13,05,37,10.20
2014,07,13,05,38,10.20
2014,07,13,05,39,10.20
2014,07,13,05,40,10.20
2014,07,13,05,41,10.20
2014,07,13,05,42,10.20
2014,07,13,05,43,10.20
2014,07,13,05,44,10.20
2014,07,13,05,45,10.20
2014,07,13,05,46,10.20
2014,07,13,05,47,10.20
2014,07,13,05,48,10.20
2014,07,13,05,49,10.20
2014,07,13,05,50,10.20
2014,07,13,05,51,10.20
2014,07,13,05,52,10.20
2014,07,13,05,53,10.20
2014,07,13,05,54,10.20
2014,07,13,05,55,10.20
2014,07,13,05,56,10.20
2014,07,13,05,57,10.20
2014,07,13,05,58,10.20
2014,07,13,05,59,10.20
2014,07,13,06,06,10.20
2014,07,13,06,07,10.20
2014,07,13,06,08,10.20
2014,07,13,06,09,10.20
2014,07,13,06,10,10.20
2014,07,13,06,11,10.20
2014,07,13,06,12,10.20
2014,07,13,06,13,10.20
2014,07,13,06,14,10.20
2014,07,13,06,15,10.20
2014,07,13,06,16,10.20
2014,07,13,06,17,10.20
2014,07,13,06,18,10.20
2014,07,13,06,19,10.20
2014,07,13,06,20,10.20
2014,07,13,06,21,10.20
2014,07,13,06,22,10.20
2014,07,13,06,23,10.20
2014,07,13,06,24,10.20
2014,07,13,06,25,10.20
2014,07,13,06,26,10.20
2014,07,13,06,27,10.20
2014,07,13,06,28,10.20
2014,07,13,06,29,10.20
2014,07,13,06,30,10.20
2014,07,13,06,31,10.20
2014,07,13,06,32,10.20
2014,07,13,06,33,10.20
2014,07,13,06,34,10.20
2014,07,13,06,35,10.20
2014,07,13,06,36,10.20
2014,07,13,06,37,10.20
2014,07,13,06,38,10.20
2014,07,13,06,39,10.20
2014,07,13,06,40,10.20
2014,07,13,06,41,10.20
2014,07,13,06,42,10.20
2014,07,13,06,43,10.20
2014,07,13,06,44,10.20
2014,07,13,06,45,10.20
2014,07,13,06,46,10.20
2014,07,13,06,47,10.20
2014,07,13,06,48,10.20
2014,07,13,06,49,10.20
2014,07,13,06,50,10.20
2014,07,13,06,51,10.20
2014,07,13,06,52,10.20
2014,07,13,06,53,10.20
2014,07,13,06,54,10.20
2014,07,13,06,55,10.20
2014,07,13,06,56,10.20
2014,07,13,06,57,10.20
2014,07,13,06,58,10.20
2014,07,13,06,59,10.20
2014,07,13,07,07,10.10
2014,07,13,07,08,10.10
2014,07,13,07,09,10.10
2014,07,13,07,10,10.10
2014,07,13,07,11,10.10
2014,07,13,07,12,10.10
2014,07,13,07,13,10.10
2014,07,13,07,14,10.10
2014,07,13,07,15,10.10
2014,07,13,07,16,10.10
2014,07,13,07,17,10.10
2014,07,13,07,18,10.10
2014,07,13,07,19,10.10
2014,07,13,07,20,10.10
2014,07,13,07,21,10.10
2014,07,13,07,22,10.10
2014,07,13,07,23,10.10
2014,07,13,07,24,10.10
2014,07,13,07,25,10.10
2014,07,13,07,26,10.10
2014,07,13,07,27,10.10
2014,07,13,07,28,10.10
2014,07,13,07,29,10.10
2014,07,13,07,30,10.10
2014,07,13,07,31,10.10
2014,07,13,07,32,10.10
2014,07,13,07,33,10.10
2014,07,13,07,34,10.10
2014,07,13,07,35,10.10
2014,07,13,07,36,10.10
2014,07,13,07,37,10.10
2014,07,13,07,38,10.10
2014,07,13,07,39,10.10
2014,07,13,07,40,10.10
2014,07,13,07,41,10.10
2014,07,13,07,42,10.10
2014,07,13,07,43,10.10
2014,07,13,07,44,10.10
2014,07,13,07,45,10.10
2014,07,13,07,46,10.10
2014,07,13,07,47,10.10
2014,07,13,07,48,10.10
2014,07,13,07,49,10.10
2014,07,13,07,50,10.10
2014,07,13,07,51,10.10
2014,07,13,07,52,10.10
2014,07,13,07,53,10.10
2014,07,13,07,54,10.10
2014,07,13,07,55,10.10
2014,07,13,07,56,10.10
2014,07,13,07,57,10.10
2014,07,13,07,58,10.10
2014,07,13,07,59,10.10
2014,07,13,08,07,10.10
2014,07,13,08,08,10.10
2014,07,13,08,09,10.10
2014,07,13,08,10,10.10
2014,07,13,08,11,10.10
2014,07,13,08,12,10.10
2014,07,13,08,13,10.10
2014,07,13,08,14,10.10
2014,07,13,08,15,10.10
2014,07,13,08,16,10.10
2014,07,13,08,17,10.10
2014,07,13,08,18,10.10
2014,07,13,08,19,10.10
2014,07,13,08,20,10.10
2014,07,13,08,21,10.10
2014,07,13,08,22,10.10
2014,07,13,08,23,10.10
2014,07,13,08,24,10.10
2014,07,13,08,25,10.10
2014,07,13,08,26,10.10
2014,07,13,08,27,10.10
2014,07,13,08,28,10.10
2014,07,13,08,29,10.10
2014,07,13,08,30,10.10
2014,07,13,08,31,10.10
2014,07,13,08,32,10.10
2014,07,13,08,33,10.10
2014,07,13,08,34,10.10
2014,07,13,08,35,10.10
2014,07,13,08,36,10.10
2014,07,13,08,37,10.10
2014,07,13,08,38,10.10
2014,07,13,08,39,10.10
2014,07,13,08,40,10.10
2014,07,13,08,41,10.10
2014,07,13,08,42,10.10
2014,07,13,08,43,10.10
2014,07,13,08,44,10.10
2014,07,13,08,45,10.10
2014,07,13,08,46,10.10
2014,07,13,08,47,10.10
2014,07,13,08,48,10.10
2014,07,13,08,49,10.10
2014,07,13,08,50,10.10
2014,07,13,08,51,10.10
2014,07,13,08,52,10.10
2014,07,13,08,53,10.10
2014,07,13,08,54,10.10
2014,07,13,08,55,10.10
2014,07,13,08,56,10.10
2014,07,13,08,57,10.10
2014,07,13,08,58,10.10
2014,07,13,08,59,10.10
2014,07,13,09,07,10.10
2014,07,13,09,08,10.10
2014,07,13,09,09,10.10
2014,07,13,09,10,10.10
2014,07,13,09,11,10.10
2014,07,13,09,12,10.10
2014,07,13,09,13,10.10
2014,07,13,09,14,10.10
2014,07,13,09,15,10.10
2014,07,13,09,16,10.10
2014,07,13,09,17,10.10
2014,07,13,09,18,10.10
2014,07,13,09,19,10.10
2014,07,13,09,20,10.10
2014,07,13,09,21,10.10
2014,07,13,09,22,10.10
2014,07,13,09,23,10.10
2014,07,13,09,24,10.10
2014,07,13,09,25,10.10
2014,07,13,09,26,10.10
2014,07,13,09,27,10.10
2014,07,13,09,28,10.10
2014,07,13,09,29,10.10
2014,07,13,09,30,10.10
2014,07,13,09,31,10.10
2014,07,13,09,32,10.10
2014,07,13,09,33,10.10
2014,07,13,09,34,10.10
2014,07,13,09,35,10.10
2014,07,13,09,36,10.10
2014,07,13,09,37,10.10
2014,07,13,09,38,10.10
2014,07,13,09,39,10.10
2014,07,13,09,40,10.10
2014,07,13,09,41,10.10
2014,07,13,09,42,10.10
2014,07,13,09,43,10.10
2014,07,13,09,44,10.10
2014,07,13,09,45,10.10
2014,07,13,09,46,10.10
2014,07,13,09,47,10.10
2014,07,13,09,48,10.10
2014,07,13,09,49,10.10
2014,07,13,09,50,10.10
2014,07,13,09,51,10.10
2014,07,13,09,52,10.10
2014,07,13,09,53,10.10
2014,07,13,09,54,10.10
2014,07,13,09,55,10.10
2014,07,13,09,56,10.10
2014,07,13,09,57,10.10
2014,07,13,09,58,10.10
2014,07,13,09,59,10.10
2014,07,13,10,07,10.30
2014,07,13,10,08,10.30
2014,07,13,10,09,10.30
2014,07,13,10,10,10.30
2014,07,13,10,11,10.30
2014,07,13,10,12,10.30
2014,07,13,10,13,10.30
2014,07,13,10,14,10.30
2014,07,13,10,15,10.30
2014,07,13,10,16,10.30
2014,07,13,10,17,10.30
2014,07,13,10,18,10.30
2014,07,13,10,19,10.30
2014,07,13,10,20,10.30
2014,07,13,10,21,10.30
2014,07,13,10,22,10.30
2014,07,13,10,23,10.30
2014,07,13,10,24,10.30
2014,07,13,10,25,10.30
2014,07,13,10,26,10.30
2014,07,13,10,27,10.30
2014,07,13,10,28,10.30
2014,07,13,10,29,10.30
2014,07,13,10,30,10.30
2014,07,13,10,31,10.30
2014,07,13,10,32,10.30
2014,07,13,10,33,10.30
2014,07,13,10,34,10.30
2014,07,13,10,35,10.30
2014,07,13,10,36,10.30
2014,07,13,10,37,10.30
2014,07,13,10,38,10.30
2014,07,13,10,39,10.30
2014,07,13,10,40,10.30
2014,07,13,10,41,10.30
2014,07,13,10,42,10.30
2014,07,13,10,43,10.30
2014,07,13,10,44,10.30
2014,07,13,10,45,10.30
2014,07,13,10,46,10.30
2014,07,13,10,47,10.30
2014,07,13,10,48,10.30
2014,07,13,10,49,10.30
2014,07,13,10,50,10.30
2014,07,13,10,51,10.30
2014,07,13,10,52,10.30
2014,07,13,10,53,10.30
2014,07,13,10,54,10.30
2014,07,13,10,55,10.30
2014,07,13,10,56,10.30
2014,07,13,10,57,10.30
2014,07,13,10,58,10.30
2014,07,13,10,59,10.30
2014,07,13,11,08,10.90
2014,07,13,11,09,10.90
2014,07,13,11,10,10.90
2014,07,13,11,11,10.90
2014,07,13,11,12,10.90
2014,07,13,11,13,10.90
2014,07,13,11,14,10.90
2014,07,13,11,15,10.90
2014,07,13,11,16,10.90
2014,07,13,11,17,10.90
2014,07,13,11,18,10.90
2014,07,13,11,19,10.90
2014,07,13,11,20,10.90
2014,07,13,11,21,10.90
2014,07,13,11,22,10.90
2014,07,13,11,23,10.90
2014,07,13,11,24,10.90
2014,07,13,11,25,10.90
2014,07,13,11,26,10.90
2014,07,13,11,27,10.90
2014,07,13,11,28,10.90
2014,07,13,11,29,10.90
2014,07,13,11,30,10.90
2014,07,13,11,31,10.90
2014,07,13,11,32,10.90
2014,07,13,11,33,10.90
2014,07,13,11,34,10.90
2014,07,13,11,35,10.90
2014,07,13,11,36,10.90
2014,07,13,11,37,10.90
2014,07,13,11,38,10.90
2014,07,13,11,39,10.90
2014,07,13,11,40,10.90
2014,07,13,11,41,10.90
2014,07,13,11,42,10.90
2014,07,13,11,43,10.90
2014,07,13,11,44,10.90
2014,07,13,11,45,10.90
2014,07,13,11,46,10.90
2014,07,13,11,47,10.90
2014,07,13,11,48,10.90
2014,07,13,11,49,10.90
2014,07,13,11,50,10.90
2014,07,13,11,51,10.90
2014,07,13,11,52,10.90
2014,07,13,11,53,10.90
2014,07,13,11,54,10.90
2014,07,13,11,55,10.90
2014,07,13,11,56,10.90
2014,07,13,11,57,10.90
2014,07,13,11,58,10.90
2014,07,13,11,59,10.90
2014,07,13,12,00,10.90
2014,07,13,12,01,10.90
2014,07,13,12,02,10.90
2014,07,13,12,03,10.90
2014,07,13,12,04,10.90
2014,07,13,12,05,10.90
2014,07,13,12,06,10.90
2014,07,13,12,07,10.90
2014,07,13,12,08,11.30
2014,07,13,12,09,11.30
2014,07,13,12,10,11.30
2014,07,13,12,11,11.30
2014,07,13,12,12,11.30
2014,07,13,12,13,11.30
2014,07,13,12,14,11.30
2014,07,13,12,15,11.30
2014,07,13,12,16,11.30
2014,07,13,12,17,11.30
2014,07,13,12,18,11.30
2014,07,13,12,19,11.30
2014,07,13,12,20,11.30
2014,07,13,12,21,11.30
2014,07,13,12,22,11.30
2014,07,13,12,23,11.30
2014,07,13,12,24,11.30
2014,07,13,12,25,11.30
2014,07,13,12,26,11.30
2014,07,13,12,27,11.30
2014,07,13,12,28,11.30
2014,07,13,12,29,11.30
2014,07,13,12,30,11.30
2014,07,13,12,31,11.30
2014,07,13,12,32,11.30
2014,07,13,12,33,11.30
2014,07,13,12,34,11.30
2014,07,13,12,35,11.30
2014,07,13,12,36,11.30
2014,07,13,12,37,11.30
2014,07,13,12,38,11.30
2014,07,13,12,39,11.30
2014,07,13,12,40,11.30
2014,07,13,12,41,11.30
2014,07,13,12,42,11.30
2014,07,13,12,43,11.30
2014,07,13,12,44,11.30
2014,07,13,12,45,11.30
2014,07,13,12,46,11.30
2014,07,13,12,47,11.30
2014,07,13,12,48,11.30
2014,07,13,12,49,11.30
2014,07,13,12,50,11.30
2014,07,13,12,51,11.30
2014,07,13,12,52,11.30
2014,07,13,12,53,11.30
2014,07,13,12,54,11.30
2014,07,13,12,55,11.30
2014,07,13,12,56,11.30
2014,07,13,12,57,11.30
2014,07,13,12,58,11.30
2014,07,13,12,59,11.30
2014,07,13,13,00,11.30
2014,07,13,13,01,11.30
2014,07,13,13,02,11.30
2014,07,13,13,03,11.30
2014,07,13,13,04,11.30
2014,07,13,13,05,11.30
2014,07,13,13,06,11.30
2014,07,13,13,07,11.30
2014,07,13,13,08,11.30
2014,07,13,13,09,12.10
2014,07,13,13,10,12.10
2014,07,13,13,11,12.10
2014,07,13,13,12,12.10
2014,07,13,13,13,12.10
2014,07,13,13,14,12.10
2014,07,13,13,15,12.10
2014,07,13,13,16,12.10
2014,07,13,13,17,12.10
2014,07,13,13,18,12.10
2014,07,13,13,19,12.10
2014,07,13,13,20,12.10
2014,07,13,13,21,12.10
2014,07,13,13,22,12.10
2014,07,13,13,23,12.10
2014,07,13,13,24,12.10
2014,07,13,13,25,12.10
2014,07,13,13,26,12.10
2014,07,13,13,27,12.10
2014,07,13,13,28,12.10
2014,07,13,13,29,12.10
2014,07,13,13,30,12.10
2014,07,13,13,31,12.10
2014,07,13,13,32,12.10
2014,07,13,13,33,12.10
2014,07,13,13,34,12.10
2014,07,13,13,35,12.10
2014,07,13,13,36,12.10
2014,07,13,13,37,12.10
2014,07,13,13,38,12.10
2014,07,13,13,39,12.10
2014,07,13,13,40,12.10
2014,07,13,13,41,12.10
2014,07,13,13,42,12.10
2014,07,13,13,43,12.10
2014,07,13,13,44,12.10
2014,07,13,13,45,12.10
2014,07,13,13,46,12.10
2014,07,13,13,47,12.10
2014,07,13,13,48,12.10
2014,07,13,13,49,12.10
2014,07,13,13,50,12.10
2014,07,13,13,51,12.10
2014,07,13,13,52,12.10
2014,07,13,13,53,12.10
2014,07,13,13,54,12.10
2014,07,13,13,55,12.10
2014,07,13,13,56,12.10
2014,07,13,13,57,12.10
2014,07,13,13,58,12.10
2014,07,13,13,59,12.10
2014,07,13,14,00,12.10
2014,07,13,14,01,12.10
2014,07,13,14,02,12.10
2014,07,13,14,03,12.10
2014,07,13,14,04,12.10
2014,07,13,14,05,12.10
2014,07,13,14,06,12.10
2014,07,13,14,07,12.10
2014,07,13,14,08,12.10
2014,07,13,14,09,12.10
2014,07,13,14,10,12.10
2014,07,13,14,11,12.10
2014,07,13,14,12,12.10
2014,07,13,14,13,12.10
2014,07,13,14,14,12.10
2014,07,13,14,15,12.10
2014,07,13,14,16,12.10
2014,07,13,14,17,12.10
2014,07,13,14,18,12.10
2014,07,13,14,19,12.10
2014,07,13,14,20,12.10
2014,07,13,14,21,12.10
2014,07,13,14,22,12.10
2014,07,13,14,23,12.10
2014,07,13,14,24,12.10
2014,07,13,14,25,12.10
2014,07,13,14,26,12.10
2014,07,13,14,27,12.10
2014,07,13,14,28,12.10
2014,07,13,14,29,12.10
2014,07,13,14,30,12.10
2014,07,13,14,31,12.10
2014,07,13,14,32,12.10
2014,07,13,14,33,12.10
2014,07,13,14,34,12.10
2014,07,13,14,35,12.10
2014,07,13,14,36,12.10
2014,07,13,14,37,12.10
2014,07,13,14,38,12.10
2014,07,13,14,39,12.10
2014,07,13,14,40,12.10
2014,07,13,14,41,12.10
2014,07,13,14,42,12.10
2014,07,13,14,43,12.10
2014,07,13,14,44,12.10
2014,07,13,14,45,12.10
2014,07,13,14,46,12.10
2014,07,13,14,47,12.10
2014,07,13,14,48,12.10
2014,07,13,14,49,12.10
2014,07,13,14,50,12.10
2014,07,13,14,51,12.10
2014,07,13,14,52,12.10
2014,07,13,14,53,12.10
2014,07,13,14,54,12.10
2014,07,13,14,55,12.10
2014,07,13,14,56,12.10
2014,07,13,14,57,12.10
2014,07,13,14,58,12.10
2014,07,13,14,59,12.10
2014,07,13,15,00,12.10
2014,07,13,15,01,12.10
2014,07,13,15,02,12.10
2014,07,13,15,03,12.10
2014,07,13,15,04,12.10
2014,07,13,15,05,12.10
2014,07,13,15,06,12.10
2014,07,13,15,07,12.10
2014,07,13,15,08,12.10
2014,07,13,15,09,12.10
2014,07,13,15,10,12.10
2014,07,13,15,11,11.80
2014,07,13,15,12,11.80
2014,07,13,15,13,11.80
2014,07,13,15,14,11.80
2014,07,13,15,15,11.80
2014,07,13,15,16,11.80
2014,07,13,15,17,11.80
2014,07,13,15,18,11.80
2014,07,13,15,19,11.80
2014,07,13,15,20,11.80
2014,07,13,15,21,11.80
2014,07,13,15,22,11.80
2014,07,13,15,23,11.80
2014,07,13,15,24,11.80
2014,07,13,15,25,11.80
2014,07,13,15,26,11.80
2014,07,13,15,27,11.80
2014,07,13,15,28,11.80
2014,07,13,15,29,11.80
2014,07,13,15,30,11.80
2014,07,13,15,31,11.80
2014,07,13,15,32,11.80
2014,07,13,15,33,11.80
2014,07,13,15,34,11.80
2014,07,13,15,35,11.80
2014,07,13,15,36,11.80
2014,07,13,15,37,11.80
2014,07,13,15,38,11.80
2014,07,13,15,39,11.80
2014,07,13,15,40,11.80
2014,07,13,15,41,11.80
2014,07,13,15,42,11.80
2014,07,13,15,43,11.80
2014,07,13,15,44,11.80
2014,07,13,15,45,11.80
2014,07,13,15,46,11.80
2014,07,13,15,47,11.80
2014,07,13,15,48,11.80
2014,07,13,15,49,11.80
2014,07,13,15,50,11.80
2014,07,13,15,51,11.80
2014,07,13,15,52,11.80
2014,07,13,15,53,11.80
2014,07,13,15,54,11.80
2014,07,13,15,55,11.80
2014,07,13,15,56,11.80
2014,07,13,15,57,11.80
2014,07,13,15,58,11.80
2014,07,13,15,59,11.80
2014,07,13,16,00,11.80
2014,07,13,16,01,11.80
2014,07,13,16,02,11.80
2014,07,13,16,03,11.80
2014,07,13,16,04,11.80
2014,07,13,16,05,11.80
2014,07,13,16,06,11.80
2014,07,13,16,07,11.80
2014,07,13,16,08,11.80
2014,07,13,16,09,11.80
2014,07,13,16,10,11.80
2014,07,13,16,11,11.80
2014,07,13,16,12,11.70
2014,07,13,16,13,11.70
2014,07,13,16,14,11.70
2014,07,13,16,15,11.70
2014,07,13,16,16,11.70
2014,07,13,16,17,11.70
2014,07,13,16,18,11.70
2014,07,13,16,19,11.70
2014,07,13,16,20,11.70
2014,07,13,16,21,11.70
2014,07,13,16,22,11.70
2014,07,13,16,23,11.70
2014,07,13,16,24,11.70
2014,07,13,16,25,11.70
2014,07,13,16,26,11.70
2014,07,13,16,27,11.70
2014,07,13,16,28,11.70
2014,07,13,16,29,11.70
2014,07,13,16,30,11.70
2014,07,13,16,31,11.70
2014,07,13,16,32,11.70
2014,07,13,16,33,11.70
2014,07,13,16,34,11.70
2014,07,13,16,35,11.70
2014,07,13,16,36,11.70
2014,07,13,16,37,11.70
2014,07,13,16,38,11.70
2014,07,13,16,39,11.70
2014,07,13,16,40,11.70
2014,07,13,16,41,11.70
2014,07,13,16,42,11.70
2014,07,13,16,43,11.70
2014,07,13,16,44,11.70
2014,07,13,16,45,11.70
2014,07,13,16,46,11.70
2014,07,13,16,47,11.70
2014,07,13,16,48,11.70
2014,07,13,16,49,11.70
2014,07,13,16,50,11.70
2014,07,13,16,51,11.70
2014,07,13,16,52,11.70
2014,07,13,16,53,11.70
2014,07,13,16,54,11.70
2014,07,13,16,55,11.70
2014,07,13,16,56,11.70
2014,07,13,16,57,11.70
2014,07,13,16,58,11.70
2014,07,13,16,59,11.70
2014,07,13,17,00,11.70
2014,07,13,17,01,11.70
2014,07,13,17,02,11.70
2014,07,13,17,03,11.70
2014,07,13,17,04,11.70
2014,07,13,17,05,11.70
2014,07,13,17,06,11.70
2014,07,13,17,07,11.70
2014,07,13,17,08,11.70
2014,07,13,17,09,11.70
2014,07,13,17,10,11.70
2014,07,13,17,11,11.70
2014,07,13,17,12,11.80
2014,07,13,17,13,11.80
2014,07,13,17,14,11.80
2014,07,13,17,15,11.80
2014,07,13,17,16,11.80
2014,07,13,17,17,11.80
2014,07,13,17,18,11.80
2014,07,13,17,19,11.80
2014,07,13,17,20,11.80
2014,07,13,17,21,11.80
2014,07,13,17,22,11.80
2014,07,13,17,23,11.80
2014,07,13,17,24,11.80
2014,07,13,17,25,11.80
2014,07,13,17,26,11.80
2014,07,13,17,27,11.80
2014,07,13,17,28,11.80
2014,07,13,17,29,11.80
2014,07,13,17,30,11.80
2014,07,13,17,31,11.80
2014,07,13,17,32,11.80
2014,07,13,17,33,11.80
2014,07,13,17,34,11.80
2014,07,13,17,35,11.80
2014,07,13,17,36,11.80
2014,07,13,17,37,11.80
2014,07,13,17,38,11.80
2014,07,13,17,39,11.80
2014,07,13,17,40,11.80
2014,07,13,17,41,11.80
2014,07,13,17,42,11.80
2014,07,13,17,43,11.80
2014,07,13,17,44,11.80
2014,07,13,17,45,11.80
2014,07,13,17,46,11.80
2014,07,13,17,47,11.80
2014,07,13,17,48,11.80
2014,07,13,17,49,11.80
2014,07,13,17,50,11.80
2014,07,13,17,51,11.80
2014,07,13,17,52,11.80
2014,07,13,17,53,11.80
2014,07,13,17,54,11.80
2014,07,13,17,55,11.80
2014,07,13,17,56,11.80
2014,07,13,17,57,11.80
2014,07,13,17,58,11.80
2014,07,13,17,59,11.80
2014,07,13,18,00,11.80
2014,07,13,18,01,11.80
2014,07,13,18,02,11.80
2014,07,13,18,03,11.80
2014,07,13,18,04,11.80
2014,07,13,18,05,11.80
2014,07,13,18,06,11.80
2014,07,13,18,07,11.80
2014,07,13,18,08,11.80
2014,07,13,18,09,11.80
2014,07,13,18,10,11.80
2014,07,13,18,11,11.80
2014,07,13,18,12,11.80
2014,07,13,18,13,11.90
2014,07,13,18,14,11.90
2014,07,13,18,15,11.90
2014,07,13,18,16,11.90
2014,07,13,18,17,11.90
2014,07,13,18,18,11.90
2014,07,13,18,19,11.90
2014,07,13,18,20,11.90
2014,07,13,18,21,11.90
2014,07,13,18,22,11.90
2014,07,13,18,23,11.90
2014,07,13,18,24,11.90
2014,07,13,18,25,11.90
2014,07,13,18,26,11.90
2014,07,13,18,27,11.90
2014,07,13,18,28,11.90
2014,07,13,18,29,11.90
2014,07,13,18,30,11.90
2014,07,13,18,31,11.90
2014,07,13,18,32,11.90
2014,07,13,18,33,11.90
2014,07,13,18,34,11.90
2014,07,13,18,35,11.90
2014,07,13,18,36,11.90
2014,07,13,18,37,11.90
2014,07,13,18,38,11.90
2014,07,13,18,39,11.90
2014,07,13,18,40,11.90
2014,07,13,18,41,11.90
2014,07,13,18,42,11.90
2014,07,13,18,43,11.90
2014,07,13,18,44,11.90
2014,07,13,18,45,11.90
2014,07,13,18,46,11.90
2014,07,13,18,47,11.90
2014,07,13,18,48,11.90
2014,07,13,18,49,11.90
2014,07,13,18,50,11.90
2014,07,13,18,51,11.90
2014,07,13,18,52,11.90
2014,07,13,18,53,11.90
2014,07,13,18,54,11.90
2014,07,13,18,55,11.90
2014,07,13,18,56,11.90
2014,07,13,18,57,11.90
2014,07,13,18,58,11.90
2014,07,13,18,59,11.90
2014,07,13,19,00,11.90
2014,07,13,19,01,11.90
2014,07,13,19,02,11.90
2014,07,13,19,03,11.90
2014,07,13,19,04,11.90
2014,07,13,19,05,11.90
2014,07,13,19,06,11.90
2014,07,13,19,07,11.90
2014,07,13,19,08,11.90
2014,07,13,19,09,11.90
2014,07,13,19,10,11.90
2014,07,13,19,11,11.90
2014,07,13,19,12,11.90
2014,07,13,19,13,11.70
2014,07,13,19,14,11.70
2014,07,13,19,15,11.70
2014,07,13,19,16,11.70
2014,07,13,19,17,11.70
2014,07,13,19,18,11.70
2014,07,13,19,19,11.70
2014,07,13,19,20,11.70
2014,07,13,19,21,11.70
2014,07,13,19,22,11.70
2014,07,13,19,23,11.70
2014,07,13,19,24,11.70
2014,07,13,19,25,11.70
2014,07,13,19,26,11.70
2014,07,13,19,27,11.70
2014,07,13,19,28,11.70
2014,07,13,19,29,11.70
2014,07,13,19,30,11.70
2014,07,13,19,31,11.70
2014,07,13,19,32,11.70
2014,07,13,19,33,11.70
2014,07,13,19,34,11.70
2014,07,13,19,35,11.70
2014,07,13,19,36,11.70
2014,07,13,19,37,11.70
2014,07,13,19,38,11.70
2014,07,13,19,39,11.70
2014,07,13,19,40,11.70
2014,07,13,19,41,11.70
2014,07,13,19,42,11.70
2014,07,13,19,43,11.70
2014,07,13,19,44,11.70
2014,07,13,19,45,11.70
2014,07,13,19,46,11.70
2014,07,13,19,47,11.70
2014,07,13,19,48,11.70
2014,07,13,19,49,11.70
2014,07,13,19,50,11.70
2014,07,13,19,51,11.70
2014,07,13,19,52,11.70
2014,07,13,19,53,11.70
2014,07,13,19,54,11.70
2014,07,13,19,55,11.70
2014,07,13,19,56,11.70
2014,07,13,19,57,11.70
2014,07,13,19,58,11.70
2014,07,13,19,59,11.70
2014,07,13,20,00,11.70
2014,07,13,20,01,11.70
2014,07,13,20,02,11.70
2014,07,13,20,03,11.70
2014,07,13,20,04,11.70
2014,07,13,20,05,11.70
2014,07,13,20,06,11.70
2014,07,13,20,07,11.70
2014,07,13,20,08,11.70
2014,07,13,20,09,11.70
2014,07,13,20,10,11.70
2014,07,13,20,11,11.70
2014,07,13,20,12,11.70
2014,07,13,20,13,11.70
2014,07,13,20,14,11.50
2014,07,13,20,15,11.50
2014,07,13,20,16,11.50
2014,07,13,20,17,11.50
2014,07,13,20,18,11.50